PDT,Max TemperatureF,Mean TemperatureF,Min TemperatureF,Max Dew PointF,MeanDew PointF,Min DewpointF,Max Humidity, Mean Humidity, Min Humidity, Max Sea Level PressureIn, Mean Sea Level PressureIn, Min Sea Level PressureIn, Max VisibilityMiles, Mean VisibilityMiles, Min VisibilityMiles, Max Wind SpeedMPH, Mean Wind SpeedMPH, Max Gust SpeedMPH,PrecipitationIn, CloudCover, Events, WindDirDegrees
2013-3-1,66,47,28,31,24,16,69,46,21,30.51,30.31,30.22,10,10,10,8,3,,0.00,1,,148
2013-3-2,66,48,30,27,23,20,66,38,17,30.30,30.10,29.97,10,10,10,10,4,,0.00,3,,324
2013-3-3,53,46,39,43,38,21,93,75,30,30.08,29.97,29.92,10,9,5,13,5,,0.16,8,Rain,135
2013-3-4,55,42,30,39,33,20,100,79,25,30.15,30.02,29.92,10,7,0,7,2,,0.01,3,Fog,38
2013-3-5,69,46,24,32,25,10,92,54,10,29.98,29.80,29.66,10,10,9,21,5,26,0.00,4,,193
2013-3-6,52,44,33,27,20,13,55,38,25,29.87,29.76,29.65,10,10,10,32,15,44,0.00,5,,258
2013-3-7,45,36,26,30,24,16,79,64,49,29.92,29.83,29.77,10,9,4,9,4,,0.00,6,Snow,278
2013-3-8,48,38,28,31,26,22,85,64,38,29.86,29.78,29.73,10,9,3,13,3,,0.00,7,Snow,343
2013-3-9,55,40,24,21,11,3,71,37,13,30.25,30.11,29.89,10,10,10,15,7,24,0.00,0,,342
2013-3-10,57,38,19,12,9,4,57,32,12,30.45,30.26,30.21,10,10,10,9,4,,0.00,2,,161
2013-3-11,66,44,24,13,11,8,57,30,11,30.31,30.16,30.07,10,10,10,7,3,,0.00,4,,142
2013-3-12,72,49,28,20,18,14,61,33,14,30.22,30.11,30.05,10,10,10,7,3,,0.00,4,,118
2013-3-13,79,54,30,25,18,10,61,31,8,30.24,30.11,30.04,10,10,10,9,3,,0.00,4,,160
2013-3-14,71,54,37,25,21,16,51,30,14,30.21,30.09,30.05,10,10,10,8,3,,0.00,5,,162
2013-3-15,73,52,32,25,19,13,70,32,10,30.15,30.01,29.94,10,10,10,8,5,,0.00,5,,217
2013-3-16,71,52,34,27,20,13,61,29,11,30.10,29.94,29.83,10,10,10,30,7,37,0.00,2,,286
2013-3-17,64,48,33,22,13,5,56,26,10,30.08,29.95,29.91,10,10,10,20,7,26,0.00,1,,308
2013-3-18,64,46,28,23,12,7,43,26,13,30.10,29.98,29.90,10,10,10,12,4,,0.00,5,,166
2013-3-19,66,54,44,34,30,27,56,39,25,30.11,29.98,29.90,10,10,10,14,7,,0.00,7,,253
2013-3-20,69,60,50,34,30,28,50,36,22,29.97,29.87,29.82,10,10,10,33,11,40,0.00,5,,265
2013-3-21,57,44,33,30,20,3,82,42,16,30.06,29.94,29.88,10,10,10,16,7,20,0.00,3,,10
2013-3-22,52,34,19,11,5,3,52,29,16,30.05,29.98,29.93,10,10,10,14,8,23,0.00,1,,19
2013-3-23,52,34,18,7,4,0,54,31,14,30.25,30.07,29.98,10,10,10,9,3,,0.00,1,,355
2013-3-24,64,41,19,13,7,-2,41,26,14,30.14,29.99,29.89,10,10,10,10,2,,0.00,2,,350
2013-3-25,69,49,30,19,12,5,44,24,9,30.01,29.88,29.78,10,10,10,15,3,,0.00,5,,223
2013-3-26,68,52,39,27,22,15,42,28,20,29.90,29.83,29.78,10,10,10,14,5,20,0.00,6,Rain,299
2013-3-27,66,48,30,30,25,20,69,42,20,29.95,29.87,29.81,10,10,10,8,3,,0.00,4,,316
2013-3-28,66,54,42,39,29,24,63,41,22,30.04,29.95,29.90,10,10,10,20,5,17,0.00,7,Rain,305
2013-3-29,72,54,36,40,30,23,79,46,18,30.18,30.05,29.99,10,10,10,8,3,,0.00,5,,337
2013-3-30,78,55,35,27,25,19,57,31,16,30.17,29.98,29.86,10,10,10,10,3,,0.00,2,,99
2013-3-31,57,47,39,43,34,23,86,58,28,30.08,29.92,29.83,10,10,4,24,10,31,0.07,4,Rain,172